Other Surface Observations
Issued by NWS

Home | Current Version | Previous Version | Text Only | Print | Product List | Glossary On
Versions: 1 2 3 4 5 6 7 8 9 10 11 12 13 14 15 16 17 18 19 20 21 22 23 24 25 26 27 28 29 30 31 32 33 34 35 36 37 38 39 40 41 42 43 44 45 46 47 48 49 50
804
SXUS52 KTAE 221518
OSOTAE
OSOTAE
North Florida/South Alabama/Southwest Georgia Weather Roundup
National Weather Service Tallahassee Florida
1100 AM EDT FRI MAY 22 2015

Note: "fair" indicates few or no clouds below 12,000 feet with no
significant weather and/or obstructions to visibility.

!FLZ017-115-028-034-025-221600
...North Florida...

CITY           SKY/WX    TMP DP  RH WIND       PRES   REMARKS
TALLAHASSEE    PTSUNNY   75  57  53 N9        30.16R
APALACHICOLA   PTSUNNY   81  63  54 N8        30.14R
PERRY          SUNNY     76  61  60 NW8       30.15R
CROSS CITY       N/A     81  64  56 NE6       30.12R
JACKSONVILLE   MOSUNNY   77  61  57 N6        30.13R
$$

!FLZ112-006-005-002-011-221600
...Florida Panhandle...

CITY           SKY/WX    TMP DP  RH WIND       PRES   REMARKS
MARIANNA       SUNNY     70  55  59 CALM      30.18R
BONIFAY        FAIR      70  54  56 N6        30.19S
PANAMA CITY NW FAIR      72  57  59 N9        30.17R
TYNDALL AFB    MOSUNNY   75  62  63 N9        30.16R
TYND DRONE APT FAIR      74  63  68 N8        30.15R
DE FUNIAK SPR  FAIR      67  54  62 MISG      30.20R
EGLIN AFB      PTSUNNY   71  53  52 N12       30.18S
DESTIN         PTSUNNY   71  56  58 NE8       30.17S
HURLBURT       PTSUNNY   72  54  53 N10G23    30.16S
CRESTVIEW      MOSUNNY   70  54  56 N8        30.21R
PENSACOLA      MOSUNNY   68  56  65 N12G17    30.18S
$$

!ALZ063-066-221600
...South Alabama...

CITY           SKY/WX    TMP DP  RH WIND       PRES   REMARKS
DOTHAN         MOSUNNY   67  51  56 N8        30.23R
OZARK CAIRNS   MOSUNNY   68  51  53 N8        30.19S
FT RUCKER HELI MOSUNNY   67  51  56 N9        30.19S
RUCKER HELI 3  FAIR      67  51  55 N7        30.21R
RUCKER HELI 2  FAIR      67  51  56 N10       30.19S
FLORALA APT    MOSUNNY   69  53  56 VRB5      30.21S
ANDALUSIA      MOSUNNY   71  50  47 VRB7      30.20S
TROY           PTSUNNY   66  51  58 N8        30.22S
EUFALA         FAIR      67  51  56 NE6       30.20R
MOBILE         MOSUNNY   68  55  63 NE9       30.19F
$$

!GAZ120>161-221600
...Southwest and South Central Georgia...

CITY           SKY/WX    TMP DP  RH WIND       PRES   REMARKS
THOMASVILLE    FAIR      70  55  60 N7        30.18R
BAINBRIDGE     SUNNY     73  55  53 N8        30.19R
MOODY AFB      MOSUNNY   72  53  50 N8        30.15S
VALDOSTA       SUNNY     73  54  49 VRB3      30.16R
MOULTRIE       SUNNY     70  50  49 N6        30.18S
BLAKELY        SUNNY     70  52  52 N5        30.20R
ALBANY         MOSUNNY   69  50  50 NE5       30.20R
TIFTON         FAIR      68  48  48 N5        30.17R
FITZGERALD     FAIR      72  48  43 NW8       30.19R
CORDELE        FAIR      69  52  53 CALM      30.19S
AMERICUS       FAIR      66  50  55 NE8       30.21S
HOMERVILLE     FAIR      73  55  53 CALM      30.16R
$$

!GMZ750-755-770-775-221600
...Coastal and Buoy Obs...

STATION/POSITION TIME  TEMP    WIND        PRES    VSBY  WAVE
                       AIR SEA DIR/SP/G                  HT/PER
                 (UTC) (F)     (DEG/KT/KT) (MB)    (MI)  (FT/S)
KEATON BEACH     1500   77     360/  3/  5 1020.6R
CEDAR KEY        1500   80      70/  2/  4 1020.1R
C TOWER          1500   72      20/ 11/ 12 1020.7R
APALACHICOLA BUO 1450   80 80   50/ 10/ 14 1019.8R         2/ 3
PANAMA CITY BUOY 1450   78 81   50/ 12/ 16 1020.6R         2/ 4
MOBILE BUOY      1450   74 81   50/ 17/ 19 1021.3R         5/ 5
ORANGE BCH AL BU 1450   68 81   30/ 14/ 16 1020.6F         2/ 3
$$



USA.gov is the U.S. government's official web portal to all federal, state and local government web resources and services.